| time (UTC) | temp F | wind direction | speed knots | gust knots | rain 1hr in | rain 24hr in | rain mn in | humidity % | barometer mb |
| 20260503022018 | 51 | 315 | 0.0 | 0.0 | 0.00 | 0.32 | 0.00 | 92 | 1012.5 |
| 20260503021516 | 51 | 45 | 0.0 | 0.0 | 0.00 | 0.32 | 0.00 | 92 | 1012.5 |
| 20260503021018 | 51 | 45 | 0.0 | 0.0 | 0.00 | 0.32 | 0.00 | 92 | 1012.6 |
| 20260503020517 | 51 | 68 | 0.0 | 0.0 | 0.00 | 0.32 | 0.00 | 92 | 1012.6 |
| 20260503020016 | 51 | 62 | 0.0 | 0.0 | 0.00 | 0.32 | 0.00 | 92 | 1012.6 |
| 20260503015517 | 51 | 68 | 0.0 | 0.0 | 0.00 | 0.32 | 0.00 | 92 | 1012.8 |
| 20260503015016 | 51 | 135 | 0.0 | 0.0 | 0.00 | 0.32 | 0.00 | 92 | 1012.7 |
| 20260503014517 | 50 | 90 | 0.0 | 2.6 | 0.00 | 0.32 | 0.00 | 92 | 1012.7 |
| 20260503014016 | 50 | 99 | 0.0 | 1.7 | 0.00 | 0.32 | 0.00 | 92 | 1012.8 |
| 20260503013517 | 50 | 121 | 0.9 | 2.6 | 0.00 | 0.32 | 0.00 | 92 | 1012.8 |
| 20260503013018 | 50 | 93 | 0.0 | 0.9 | 0.00 | 0.32 | 0.00 | 92 | 1012.8 |
| 20260503012516 | 50 | 197 | 0.0 | 0.0 | 0.00 | 0.32 | 0.00 | 92 | 1012.9 |
| 20260503012017 | 50 | 22 | 0.0 | 0.0 | 0.00 | 0.32 | 0.00 | 92 | 1012.9 |
| 20260503011516 | 50 | 22 | 0.0 | 0.0 | 0.00 | 0.32 | 0.00 | 92 | 1012.9 |
| 20260503011016 | 50 | 22 | 0.0 | 0.0 | 0.00 | 0.32 | 0.00 | 92 | 1012.9 |
| 20260503010518 | 50 | 22 | 0.0 | 0.0 | 0.00 | 0.32 | 0.00 | 92 | 1013.3 |
| 20260503010017 | 49 | 112 | 0.0 | 0.0 | 0.00 | 0.32 | 0.00 | 91 | 1013.3 |
| 20260503005517 | 49 | 112 | 0.0 | 0.0 | 0.00 | 0.32 | 0.00 | 91 | 1013.2 |
| 20260503005019 | 49 | 112 | 0.0 | 0.0 | 0.00 | 0.32 | 0.00 | 91 | 1013.2 |
| 20260503004516 | 49 | 112 | 0.0 | 0.0 | 0.00 | 0.32 | 0.00 | 91 | 1013.3 |
| 20260503004019 | 50 | 112 | 0.0 | 0.0 | 0.00 | 0.32 | 0.00 | 91 | 1013.3 |
| 20260503003518 | 50 | 112 | 0.0 | 0.0 | 0.00 | 0.32 | 0.00 | 91 | 1013.3 |
| 20260503003017 | 50 | 112 | 0.0 | 0.0 | 0.00 | 0.32 | 0.00 | 91 | 1013.3 |
| 20260503002517 | 50 | 135 | 0.0 | 0.0 | 0.00 | 0.32 | 0.00 | 91 | 1013.3 |
| 20260503002018 | 50 | 135 | 0.0 | 0.0 | 0.00 | 0.32 | 0.00 | 91 | 1013.4 |
| 20260503001517 | 50 | 129 | 0.0 | 0.0 | 0.00 | 0.32 | 0.00 | 91 | 1013.3 |
| 20260503001017 | 50 | 94 | 0.0 | 0.0 | 0.00 | 0.32 | 0.00 | 91 | 1013.2 |
| 20260503000518 | 51 | 77 | 0.0 | 0.0 | 0.00 | 0.32 | 0.00 | 91 | 1013.5 |
| 20260503000019 | 51 | 68 | 0.0 | 0.0 | 0.00 | 0.32 | 0.00 | 91 | 1013.5 |
| 20260502235517 | 51 | 68 | 0.0 | 0.0 | 0.00 | 0.32 | 0.00 | 91 | 1013.5 |
| 20260502235016 | 51 | 72 | 0.0 | 0.0 | 0.00 | 0.32 | 0.00 | 91 | 1013.5 |
| 20260502234519 | 51 | 45 | 0.0 | 0.0 | 0.00 | 0.32 | 0.00 | 91 | 1013.3 |
| 20260502234016 | 51 | 68 | 0.0 | 0.0 | 0.00 | 0.32 | 0.00 | 91 | 1013.5 |
| 20260502233516 | 51 | 68 | 0.0 | 0.0 | 0.00 | 0.32 | 0.00 | 91 | 1013.6 |
| 20260502233016 | 51 | 70 | 0.0 | 2.6 | 0.00 | 0.32 | 0.00 | 91 | 1013.6 |
| 20260502232516 | 51 | 112 | 0.0 | 0.0 | 0.00 | 0.32 | 0.00 | 91 | 1013.5 |
| 20260502232016 | 51 | 112 | 0.0 | 0.0 | 0.00 | 0.32 | 0.00 | 91 | 1013.7 |
| 20260502231517 | 52 | 112 | 0.0 | 0.0 | 0.00 | 0.32 | 0.00 | 91 | 1013.6 |
| 20260502231016 | 52 | 112 | 0.0 | 0.0 | 0.00 | 0.32 | 0.00 | 91 | 1013.6 |
| 20260502230516 | 52 | 112 | 0.0 | 0.0 | 0.00 | 0.32 | 0.00 | 91 | 1013.5 |
| 20260502230016 | 52 | 112 | 0.0 | 0.0 | 0.00 | 0.32 | 0.00 | 91 | 1013.6 |
| 20260502225516 | 52 | 112 | 0.0 | 0.0 | 0.00 | 0.32 | 0.00 | 91 | 1013.6 |
| 20260502225017 | 52 | 112 | 0.0 | 0.0 | 0.00 | 0.32 | 0.00 | 91 | 1013.7 |
| 20260502224517 | 52 | 112 | 0.0 | 0.0 | 0.00 | 0.32 | 0.00 | 90 | 1013.6 |
| 20260502224017 | 51 | 135 | 0.0 | 0.0 | 0.00 | 0.32 | 0.00 | 90 | 1013.5 |
| 20260502223517 | 51 | 135 | 0.0 | 0.0 | 0.00 | 0.32 | 0.00 | 90 | 1013.4 |
| 20260502223016 | 51 | 135 | 0.0 | 0.0 | 0.00 | 0.32 | 0.00 | 90 | 1013.5 |
| 20260502222516 | 51 | 135 | 0.0 | 0.0 | 0.00 | 0.32 | 0.00 | 90 | 1013.5 |
| 20260502222018 | 52 | 135 | 0.0 | 0.0 | 0.00 | 0.32 | 0.00 | 90 | 1013.5 |
| 20260502221516 | 52 | 135 | 0.0 | 0.0 | 0.00 | 0.32 | 0.00 | 90 | 1013.5 |
| 20260502221019 | 52 | 135 | 0.0 | 0.0 | 0.00 | 0.32 | 0.00 | 89 | 1013.4 |
| 20260502220516 | 52 | 135 | 0.0 | 0.0 | 0.00 | 0.32 | 0.00 | 89 | 1013.3 |
| 20260502220017 | 52 | 135 | 0.0 | 0.0 | 0.00 | 0.32 | 0.00 | 89 | 1013.4 |
| 20260502215516 | 53 | 101 | 0.0 | 0.0 | 0.00 | 0.32 | 0.32 | 89 | 1013.4 |
| 20260502215017 | 53 | 90 | 0.0 | 0.0 | 0.00 | 0.32 | 0.32 | 89 | 1013.5 |
| 20260502214516 | 53 | 100 | 0.0 | 0.0 | 0.00 | 0.32 | 0.32 | 89 | 1013.5 |
| 20260502214016 | 53 | 158 | 0.0 | 0.0 | 0.00 | 0.32 | 0.32 | 89 | 1013.5 |
| 20260502213517 | 53 | 112 | 0.0 | 0.0 | 0.00 | 0.32 | 0.32 | 89 | 1013.4 |
| 20260502213017 | 53 | 78 | 0.0 | 0.0 | 0.00 | 0.32 | 0.32 | 89 | 1013.5 |
| 20260502212516 | 53 | 112 | 0.0 | 0.0 | 0.00 | 0.32 | 0.32 | 89 | 1013.5 |
| 20260502212017 | 53 | 112 | 0.0 | 0.0 | 0.00 | 0.32 | 0.32 | 89 | 1013.4 |
| 20260502211518 | 54 | 112 | 0.0 | 0.0 | 0.00 | 0.32 | 0.32 | 89 | 1013.4 |
| 20260502211017 | 54 | 112 | 0.0 | 0.0 | 0.00 | 0.32 | 0.32 | 89 | 1013.3 |
| 20260502210516 | 54 | 112 | 0.0 | 0.0 | 0.00 | 0.32 | 0.32 | 89 | 1013.4 |
| 20260502210016 | 54 | 116 | 0.0 | 0.0 | 0.00 | 0.32 | 0.32 | 89 | 1013.4 |
| 20260502205516 | 54 | 135 | 0.0 | 0.0 | 0.00 | 0.32 | 0.32 | 89 | 1013.4 |
| 20260502205017 | 54 | 135 | 0.0 | 0.0 | 0.00 | 0.32 | 0.32 | 89 | 1013.3 |
| 20260502204516 | 54 | 135 | 0.0 | 0.0 | 0.00 | 0.32 | 0.32 | 89 | 1013.3 |
| 20260502204017 | 54 | 135 | 0.0 | 0.0 | 0.00 | 0.32 | 0.32 | 89 | 1013.2 |
| 20260502203516 | 54 | 119 | 0.0 | 0.0 | 0.00 | 0.32 | 0.32 | 89 | 1013.1 |
| 20260502203018 | 54 | 135 | 0.0 | 0.0 | 0.00 | 0.32 | 0.32 | 89 | 1013.1 |
| 20260502202516 | 54 | 135 | 0.0 | 0.0 | 0.00 | 0.32 | 0.32 | 89 | 1013.2 |
| 20260502202016 | 54 | 135 | 0.0 | 0.0 | 0.00 | 0.32 | 0.32 | 89 | 1013.2 |
| 20260502201516 | 54 | 135 | 0.0 | 0.0 | 0.00 | 0.32 | 0.32 | 88 | 1013.2 |
| 20260502201016 | 54 | 112 | 0.0 | 0.0 | 0.00 | 0.32 | 0.32 | 88 | 1013.1 |
| 20260502200516 | 54 | 112 | 0.0 | 0.0 | 0.00 | 0.32 | 0.32 | 88 | 1013.1 |
| 20260502200016 | 54 | 110 | 0.0 | 0.0 | 0.00 | 0.32 | 0.32 | 88 | 1013.2 |
| 20260502195516 | 54 | 100 | 0.0 | 0.0 | 0.00 | 0.32 | 0.32 | 88 | 1013.3 |
| 20260502195016 | 54 | 112 | 0.0 | 0.0 | 0.00 | 0.32 | 0.32 | 88 | 1013.3 |
| 20260502194517 | 54 | 112 | 0.0 | 0.0 | 0.00 | 0.32 | 0.32 | 87 | 1013.2 |
| 20260502194016 | 54 | 112 | 0.0 | 0.0 | 0.00 | 0.32 | 0.32 | 87 | 1013.1 |
| 20260502193516 | 54 | 112 | 0.0 | 0.0 | 0.00 | 0.32 | 0.32 | 87 | 1013.1 |
| 20260502193016 | 54 | 112 | 0.0 | 0.0 | 0.00 | 0.32 | 0.32 | 87 | 1013.2 |
| 20260502192516 | 54 | 112 | 0.0 | 0.0 | 0.00 | 0.32 | 0.32 | 87 | 1013.1 |
| 20260502192017 | 55 | 112 | 0.0 | 0.0 | 0.00 | 0.32 | 0.32 | 87 | 1012.9 |
| 20260502191517 | 55 | 112 | 0.0 | 0.0 | 0.00 | 0.32 | 0.32 | 87 | 1012.9 |
| 20260502191017 | 55 | 90 | 0.0 | 0.0 | 0.00 | 0.32 | 0.32 | 87 | 1012.8 |
| 20260502190516 | 55 | 90 | 0.0 | 0.0 | 0.00 | 0.32 | 0.32 | 87 | 1012.7 |
| 20260502190016 | 55 | 135 | 0.0 | 0.0 | 0.00 | 0.32 | 0.32 | 87 | 1012.8 |
| 20260502185516 | 55 | 135 | 0.0 | 0.0 | 0.00 | 0.32 | 0.32 | 86 | 1012.8 |
| 20260502185016 | 55 | 112 | 0.0 | 0.9 | 0.00 | 0.32 | 0.32 | 86 | 1012.8 |
| 20260502184517 | 56 | 90 | 0.0 | 0.0 | 0.02 | 0.32 | 0.32 | 86 | 1012.9 |
| 20260502184016 | 55 | 90 | 0.0 | 0.0 | 0.02 | 0.32 | 0.32 | 86 | 1013.1 |
| 20260502183516 | 56 | 90 | 0.0 | 0.0 | 0.04 | 0.32 | 0.32 | 86 | 1013.3 |
| 20260502183016 | 56 | 90 | 0.0 | 0.0 | 0.06 | 0.32 | 0.32 | 85 | 1013.1 |
| 20260502182516 | 56 | 90 | 0.0 | 0.0 | 0.08 | 0.32 | 0.32 | 85 | 1013.0 |
| 20260502182019 | 56 | 45 | 0.0 | 0.0 | 0.08 | 0.32 | 0.32 | 85 | 1013.2 |
| 20260502181516 | 56 | 45 | 0.0 | 0.0 | 0.10 | 0.32 | 0.32 | 85 | 1013.3 |
| 20260502181017 | 56 | 45 | 0.0 | 0.0 | 0.10 | 0.32 | 0.32 | 84 | 1013.4 |
| 20260502180517 | 56 | 45 | 0.0 | 0.0 | 0.10 | 0.32 | 0.32 | 84 | 1013.3 |
| 20260502170518 | 61 | 96 | 0.0 | 2.6 | 0.00 | 0.22 | 0.22 | 76 | 1013.0 |
| 20260502164016 | 62 | 103 | 0.9 | 5.2 | 0.00 | 0.22 | 0.22 | 77 | 1012.9 |
| 20260502163516 | 62 | 120 | 0.9 | 5.2 | 0.00 | 0.22 | 0.22 | 77 | 1012.9 |
| 20260502163016 | 62 | 135 | 0.0 | 0.0 | 0.00 | 0.22 | 0.22 | 77 | 1012.9 |
| 20260502162516 | 62 | 135 | 0.0 | 2.6 | 0.00 | 0.22 | 0.22 | 78 | 1013.0 |
| 20260502162016 | 62 | 135 | 0.0 | 5.2 | 0.00 | 0.22 | 0.22 | 78 | 1013.0 |
| 20260502161516 | 62 | 112 | 1.7 | 4.3 | 0.00 | 0.22 | 0.22 | 78 | 1013.0 |
| 20260502161016 | 62 | 100 | 1.7 | 5.2 | 0.00 | 0.22 | 0.22 | 78 | 1013.0 |
| 20260502160516 | 62 | 129 | 0.9 | 2.6 | 0.00 | 0.22 | 0.22 | 78 | 1013.0 |
| 20260502152015 | 62 | 151 | 0.0 | 0.9 | 0.06 | 0.22 | 0.22 | 80 | 1013.6 |
| 20260502151516 | 62 | 161 | 0.0 | 0.0 | 0.08 | 0.22 | 0.22 | 81 | 1013.7 |
| 20260502151016 | 61 | 0 | 0.0 | 0.0 | 0.08 | 0.22 | 0.22 | 82 | 1013.7 |
| 20260502150516 | 60 | 10 | 0.0 | 0.0 | 0.10 | 0.22 | 0.22 | 83 | 1013.7 |
| 20260502130515 | 67 | 126 | 1.7 | 5.2 | 0.00 | 0.00 | 0.00 | 67 | 1014.7 |
| 20260502123516 | 70 | 150 | 3.5 | 5.2 | 0.00 | 0.00 | 0.00 | 67 | 1014.6 |
| 20260502123016 | 70 | 150 | 4.3 | 6.1 | 0.00 | 0.00 | 0.00 | 69 | 1014.6 |
| 20260502122514 | 69 | 135 | 2.6 | 6.1 | 0.00 | 0.00 | 0.00 | 70 | 1014.5 |
| 20260502122017 | 68 | 130 | 2.6 | 6.1 | 0.00 | 0.00 | 0.00 | 70 | 1014.6 |
| 20260502121516 | 68 | 80 | 2.6 | 7.0 | 0.00 | 0.00 | 0.00 | 71 | 1014.6 |
| 20260502121016 | 67 | 118 | 3.5 | 7.0 | 0.00 | 0.00 | 0.00 | 72 | 1014.7 |
| 20260502120516 | 67 | 85 | 2.6 | 6.1 | 0.00 | 0.00 | 0.00 | 73 | 1014.8 |
| 20260502115517 | 66 | 96 | 4.3 | 7.8 | 0.00 | 0.00 | 0.00 | 73 | 1014.8 |
| 20260502115015 | 66 | 89 | 2.6 | 7.8 | 0.00 | 0.00 | 0.00 | 74 | 1014.9 |
| 20260502114517 | 65 | 112 | 1.7 | 5.2 | 0.00 | 0.00 | 0.00 | 76 | 1014.9 |
| 20260502114016 | 64 | 115 | 4.3 | 10.4 | 0.00 | 0.00 | 0.00 | 76 | 1014.8 |
| 20260502113515 | 64 | 123 | 1.7 | 6.1 | 0.00 | 0.00 | 0.00 | 77 | 1015.0 |
| 20260502113015 | 63 | 112 | 4.3 | 10.4 | 0.00 | 0.00 | 0.00 | 77 | 1015.3 |
| 20260502112515 | 63 | 93 | 3.5 | 7.8 | 0.00 | 0.00 | 0.00 | 78 | 1015.4 |
| 20260502112016 | 63 | 100 | 1.7 | 6.1 | 0.00 | 0.00 | 0.00 | 78 | 1015.5 |
| 20260502111516 | 63 | 153 | 4.3 | 7.0 | 0.00 | 0.00 | 0.00 | 77 | 1015.6 |
| 20260502111015 | 63 | 153 | 2.6 | 7.0 | 0.00 | 0.00 | 0.00 | 78 | 1015.6 |
| 20260502110515 | 63 | 88 | 1.7 | 5.2 | 0.00 | 0.00 | 0.00 | 78 | 1015.6 |
| 20260502110015 | 63 | 151 | 1.7 | 7.8 | 0.00 | 0.00 | 0.00 | 78 | 1015.7 |
| 20260502105515 | 63 | 99 | 1.7 | 7.8 | 0.00 | 0.00 | 0.00 | 78 | 1015.8 |
| 20260502105015 | 62 | 112 | 2.6 | 8.7 | 0.00 | 0.00 | 0.00 | 79 | 1016.0 |
| 20260502104515 | 62 | 178 | 0.9 | 8.7 | 0.00 | 0.00 | 0.00 | 79 | 1015.9 |
| 20260502104016 | 62 | 143 | 1.7 | 5.2 | 0.00 | 0.00 | 0.00 | 78 | 1015.8 |
| 20260502103515 | 62 | 115 | 1.7 | 5.2 | 0.00 | 0.00 | 0.00 | 77 | 1015.9 |
| 20260502103015 | 62 | 109 | 2.6 | 5.2 | 0.00 | 0.00 | 0.00 | 76 | 1015.9 |
| 20260502102515 | 62 | 126 | 4.3 | 7.0 | 0.00 | 0.00 | 0.00 | 75 | 1016.3 |
| 20260502102015 | 63 | 155 | 1.7 | 6.1 | 0.00 | 0.00 | 0.00 | 75 | 1016.7 |
| 20260502101515 | 63 | 129 | 0.9 | 6.1 | 0.00 | 0.00 | 0.00 | 74 | 1016.5 |
| 20260502101015 | 63 | 101 | 2.6 | 8.7 | 0.00 | 0.00 | 0.00 | 73 | 1016.4 |
| 20260502100515 | 64 | 100 | 2.6 | 7.8 | 0.00 | 0.00 | 0.00 | 73 | 1016.2 |
| 20260502091515 | 63 | 70 | 2.6 | 7.0 | 0.00 | 0.00 | 0.00 | 74 | 1016.3 |
| 20260502091016 | 63 | 123 | 3.5 | 8.7 | 0.00 | 0.00 | 0.00 | 73 | 1016.3 |
| 20260502090516 | 64 | 108 | 4.3 | 7.0 | 0.00 | 0.00 | 0.00 | 73 | 1016.3 |
| 20260502071516 | 60 | 52 | 2.6 | 6.1 | 0.00 | 0.00 | 0.00 | 84 | 1016.3 |
| 20260502071016 | 59 | 92 | 3.5 | 7.0 | 0.00 | 0.00 | 0.00 | 84 | 1016.4 |
| 20260502070515 | 58 | 91 | 1.7 | 6.1 | 0.00 | 0.00 | 0.00 | 84 | 1016.4 |
| 20260502070015 | 57 | 64 | 1.7 | 7.8 | 0.00 | 0.00 | 0.00 | 85 | 1016.5 |
| 20260502065514 | 57 | 97 | 5.2 | 7.8 | 0.00 | 0.00 | 0.00 | 85 | 1016.4 |
| 20260502065015 | 57 | 79 | 2.6 | 5.2 | 0.00 | 0.00 | 0.00 | 85 | 1016.3 |
| 20260502064515 | 56 | 70 | 4.3 | 8.7 | 0.00 | 0.00 | 0.00 | 85 | 1016.3 |
| 20260502064015 | 56 | 80 | 2.6 | 6.1 | 0.00 | 0.00 | 0.00 | 86 | 1016.3 |
| 20260502063515 | 56 | 73 | 2.6 | 7.0 | 0.00 | 0.00 | 0.00 | 86 | 1016.5 |
| 20260502063016 | 56 | 86 | 0.9 | 7.0 | 0.00 | 0.00 | 0.00 | 86 | 1016.3 |
| 20260502062515 | 56 | 88 | 4.3 | 7.0 | 0.00 | 0.00 | 0.00 | 87 | 1016.4 |
| 20260502062018 | 55 | 84 | 1.7 | 5.2 | 0.00 | 0.00 | 0.00 | 87 | 1016.3 |
| 20260502061518 | 55 | 95 | 1.7 | 6.1 | 0.00 | 0.00 | 0.00 | 87 | 1016.3 |
| 20260502061015 | 55 | 140 | 0.9 | 5.2 | 0.00 | 0.00 | 0.00 | 87 | 1016.5 |
| 20260502060515 | 55 | 73 | 1.7 | 7.0 | 0.00 | 0.00 | 0.00 | 87 | 1016.5 |
| 20260502060015 | 55 | 135 | 1.7 | 5.2 | 0.00 | 0.00 | 0.00 | 87 | 1016.4 |
| 20260502055518 | 55 | 85 | 1.7 | 6.1 | 0.00 | 0.00 | 0.00 | 87 | 1016.3 |
| 20260502055015 | 55 | 131 | 0.9 | 6.1 | 0.00 | 0.00 | 0.00 | 87 | 1016.1 |
| 20260502054515 | 55 | 132 | 1.7 | 6.1 | 0.00 | 0.00 | 0.00 | 87 | 1016.3 |
| 20260502054015 | 55 | 91 | 1.7 | 6.1 | 0.00 | 0.00 | 0.00 | 87 | 1016.3 |
| 20260502053515 | 55 | 78 | 3.5 | 6.1 | 0.00 | 0.00 | 0.00 | 87 | 1016.3 |
| 20260502053015 | 55 | 114 | 1.7 | 5.2 | 0.00 | 0.00 | 0.00 | 87 | 1016.2 |
| 20260502052515 | 55 | 78 | 5.2 | 11.3 | 0.00 | 0.00 | 0.00 | 87 | 1016.1 |
| 20260502052015 | 55 | 76 | 4.3 | 7.0 | 0.00 | 0.00 | 0.00 | 87 | 1016.5 |
| 20260502051515 | 55 | 84 | 3.5 | 7.0 | 0.00 | 0.00 | 0.00 | 87 | 1016.3 |
| 20260502051016 | 55 | 68 | 2.6 | 6.1 | 0.00 | 0.00 | 0.00 | 87 | 1016.1 |
| 20260502050518 | 55 | 77 | 2.6 | 6.1 | 0.00 | 0.00 | 0.00 | 87 | 1016.1 |
| 20260502050016 | 55 | 85 | 3.5 | 7.0 | 0.00 | 0.00 | 0.00 | 87 | 1016.2 |
| 20260502045515 | 54 | 171 | 2.6 | 7.0 | 0.00 | 0.00 | 0.00 | 87 | 1016.4 |
| 20260502045015 | 54 | 52 | 0.9 | 6.1 | 0.00 | 0.00 | 0.00 | 87 | 1016.4 |
| 20260502044516 | 54 | 120 | 0.9 | 4.3 | 0.00 | 0.00 | 0.00 | 86 | 1016.4 |
| 20260502044015 | 54 | 97 | 2.6 | 6.1 | 0.00 | 0.00 | 0.00 | 86 | 1016.4 |
| 20260502043515 | 54 | 92 | 2.6 | 8.7 | 0.00 | 0.00 | 0.00 | 86 | 1016.4 |
| 20260502043019 | 54 | 90 | 2.6 | 6.1 | 0.00 | 0.00 | 0.00 | 86 | 1016.3 |
| 20260502042515 | 54 | 73 | 2.6 | 7.8 | 0.00 | 0.00 | 0.00 | 86 | 1016.1 |
| 20260502042015 | 54 | 38 | 2.6 | 7.0 | 0.00 | 0.00 | 0.00 | 86 | 1016.4 |
| 20260502041514 | 54 | 64 | 2.6 | 6.1 | 0.00 | 0.00 | 0.00 | 86 | 1016.5 |
| 20260502041015 | 54 | 88 | 2.6 | 8.7 | 0.00 | 0.00 | 0.00 | 86 | 1016.4 |
| 20260502040515 | 54 | 93 | 1.7 | 7.8 | 0.00 | 0.00 | 0.00 | 86 | 1016.6 |
| 20260502040014 | 54 | 99 | 3.5 | 7.0 | 0.00 | 0.00 | 0.00 | 85 | 1016.7 |
| 20260502035514 | 54 | 27 | 2.6 | 7.8 | 0.00 | 0.00 | 0.00 | 85 | 1016.7 |
| 20260502035015 | 54 | 68 | 0.0 | 2.6 | 0.00 | 0.00 | 0.00 | 85 | 1016.6 |
| 20260502034515 | 54 | 90 | 0.9 | 4.3 | 0.00 | 0.00 | 0.00 | 84 | 1016.6 |
| 20260502034015 | 54 | 133 | 0.9 | 2.6 | 0.00 | 0.00 | 0.00 | 84 | 1016.5 |
| 20260502033515 | 55 | 18 | 0.9 | 5.2 | 0.00 | 0.00 | 0.00 | 84 | 1016.4 |
| 20260502033016 | 55 | 107 | 0.9 | 6.1 | 0.00 | 0.00 | 0.00 | 84 | 1016.5 |
| 20260502032515 | 55 | 38 | 2.6 | 10.4 | 0.00 | 0.00 | 0.00 | 84 | 1016.6 |
| 20260502032016 | 55 | 71 | 1.7 | 6.1 | 0.00 | 0.00 | 0.00 | 84 | 1016.6 |
| 20260502031515 | 55 | 183 | 2.6 | 6.1 | 0.00 | 0.00 | 0.00 | 84 | 1016.4 |
| 20260502031015 | 55 | 104 | 1.7 | 4.3 | 0.00 | 0.00 | 0.00 | 84 | 1016.4 |
| 20260502030515 | 55 | 90 | 0.0 | 5.2 | 0.00 | 0.00 | 0.00 | 84 | 1016.7 |
| 20260502030015 | 55 | 76 | 0.9 | 6.1 | 0.00 | 0.00 | 0.00 | 83 | 1016.6 |
| 20260502025514 | 55 | 86 | 0.9 | 4.3 | 0.00 | 0.00 | 0.00 | 83 | 1016.6 |
| 20260502025015 | 55 | 79 | 2.6 | 5.2 | 0.00 | 0.00 | 0.00 | 83 | 1016.6 |
| 20260502024515 | 56 | 78 | 1.7 | 4.3 | 0.00 | 0.00 | 0.00 | 83 | 1016.6 |
| 20260502024015 | 56 | 61 | 2.6 | 7.0 | 0.00 | 0.00 | 0.00 | 83 | 1016.6 |
| 20260502023515 | 56 | 28 | 1.7 | 7.0 | 0.00 | 0.00 | 0.00 | 83 | 1016.7 |
| 20260502023015 | 56 | 77 | 1.7 | 6.1 | 0.00 | 0.00 | 0.00 | 82 | 1016.6 |
| 20260502022515 | 56 | 92 | 4.3 | 7.0 | 0.00 | 0.00 | 0.00 | 82 | 1016.6 |